Regional Weather Roundup
Issued by NWS

Home | Current Version | Previous Version | Text Only | Print | Product List | Glossary On
Versions: 1 2 3 4 5 6 7 8 9 10 11 12 13 14 15 16 17 18 19 20 21 22 23 24 25 26 27 28 29 30 31 32 33 34 35 36 37 38 39 40 41 42 43 44 45 46 47 48 49 50
132
ASUS43 KOAX 060910
RWRNE

WEATHER ROUNDUP FOR NEBRASKA
NATIONAL WEATHER SERVICE OMAHA NE
300 AM CST TUE DEC 06 2016

NOTES: SATELLITE DATA IS BEING USED TO AUGMENT CLOUD COVER ABOVE
       12000 FEET.
       "FAIR" INDICATES FEW OR NO CLOUDS BELOW 12,000 FEET WITH NO
       SIGNIFICANT WEATHER AND/OR OBSTRUCTIONS TO VISIBILITY.

  * THESE STATIONS DO NOT REPORT WEATHER SUCH AS RAIN...SNOW OR FOG.

NEZ001>004-019>022-054>056-061000-
NEBRASKA PANHANDLE

CITY           SKY/WX    TMP DP  RH WIND       PRES   REMARKS
SCOTTSBLUFF    CLEAR     11   3  70 NW8       29.99R WCI  -1
ALLIANCE       CLEAR     11   3  70 NW13      29.95R WCI  -4
CHADRON        CLEAR     13   4  67 W9        30.01R WCI   1
KIMBALL        CLEAR     10   6  87 W10       29.96R WCI  -4
SIDNEY         CLEAR     10   3  73 NW10      29.98R WCI  -4
$$

NEZ057>060-069>072-079>082-061000-
SOUTHWEST NEBRASKA

CITY           SKY/WX    TMP DP  RH WIND       PRES   REMARKS
NORTH PLATTE   CLEAR     20  11  68 NW12      29.99R WCI   8
IMPERIAL       CLEAR     19   8  62 NW14      30.01R WCI   6
LEXINGTON      CLEAR     24  17  72 W14       29.98R WCI  12
MCCOOK         CLEAR     20  10  65 NW8       30.02R WCI  10
OGALLALA       CLEAR     19   8  62 NW15      29.98S WCI   5
$$

NEZ005>010-023>029-035>040-094-061000-
NORTH CENTRAL NEBRASKA

CITY           SKY/WX    TMP DP  RH WIND       PRES   REMARKS
VALENTINE      CLEAR     16   6  65 W14       29.95R WCI   2
AINSWORTH      CLEAR     18  10  70 W13       29.94S WCI   4
BROKEN BOW     PTCLDY    19  13  77 NW8       29.96R WCI   9
O`NEILL        CLEAR     19  10  67 W13G22    29.93R WCI   6
ORD            PTCLDY    20   9  62 NW13      29.96R WCI   7
THEDFORD       PTCLDY    16  13  86 W7        29.96S WCI   7
$$

NEZ041-046>049-061>064-073>077-083>087-061000-
SOUTH CENTRAL NEBRASKA

CITY           SKY/WX    TMP DP  RH WIND       PRES   REMARKS
GRAND ISLAND   CLOUDY    24  13  62 NW13      29.98R WCI  12
AURORA         CLOUDY    26  13  59 N13       29.97R WCI  14
HASTINGS       CLOUDY    25  15  66 NW17      29.97R WCI  12
HEBRON         CLOUDY    30  17  57 N18G25    29.97R WCI  18
HOLDREGE       PTCLDY    22  15  73 NW9       29.98R WCI  12
KEARNEY *      PTCLDY    25  12  58 NW9       29.98R WCI  15
YORK           CLOUDY    27  14  59 NW16G24   29.96R WCI  14
$$

NEZ011>018-030>034-042>045-061000-
NORTHEAST NEBRASKA

CITY           SKY/WX    TMP DP  RH WIND       PRES   REMARKS
NORFOLK        PTCLDY    21  10  62 NW14      29.93R WCI   8
ALBION         PTCLDY    22  10  60 NW14G20   29.96R WCI   9
BLAIR          CLOUDY    30  20  66 NW12      29.93R WCI  20
FREMONT        CLOUDY    29  20  69 NW16      29.94F WCI  17
TEKAMAH        CLOUDY    29  18  63 NW14      29.94R WCI  18
WAYNE          CLOUDY    23  13  65 NW14G23   29.93R WCI  10
$$

NEZ050>053-065>068-078-088>093-061000-
SOUTHEAST NEBRASKA

CITY           SKY/WX    TMP DP  RH WIND       PRES   REMARKS
LINCOLN        CLOUDY    31  19  61 NW14      29.96R WCI  21
OMAHA EPPLEY   CLOUDY    31  20  63 NW18      29.94R WCI  19
BEATRICE       CLOUDY    32  20  63 N15       29.94R WCI  21
FALLS CITY     CLOUDY    33  24  69 NW17G30   29.91R WCI  22
NEBRASKA CITY  CLOUDY    32  20  61 N17G24    29.92S WCI  21
PLATTSMOUTH    CLOUDY    31  19  62 NW18      29.93S WCI  19
$$

NEZ044-045-051>053-067-061000-
OMAHA AREA

CITY           SKY/WX    TMP DP  RH WIND       PRES   REMARKS
OMAHA EPPLEY   CLOUDY    31  20  63 NW18      29.94R WCI  19
BLAIR          CLOUDY    30  20  66 NW12      29.93R WCI  20
FREMONT        CLOUDY    29  20  69 NW16      29.94F WCI  17
MILLARD        CLOUDY    32  19  60 NW18G24   29.95R WCI  20
OFFUTT AFB     CLOUDY    31  24  75 NW14G22   29.93S WCI  21
PLATTSMOUTH    CLOUDY    31  19  62 NW18      29.93S WCI  19
WAHOO          CLOUDY    30  20  65 NW15G22   29.94S WCI  19
$$




USA.gov is the U.S. government's official web portal to all federal, state and local government web resources and services.